Weather History for Glenwood, MN

Change the Weather History Date:

Wednesday, August 21, 2013

  Actual Average Record
Temperature  
Mean Temperature 78 °F -  
Max Temperature 89 °F 78 °F 92 °F (1972)
Min Temperature 64 °F 57 °F 39 °F (2004)
Cooling Degree Days 14    
Growing Degree Days 28 (Base 50)    
Moisture  
Dew Point 65 °F    
Average Humidity 70    
Maximum Humidity 100    
Minimum Humidity 31    
Precipitation  
Precipitation 0.00 in - - ()
Sea Level Pressure  
Sea Level Pressure 29.94 in    
Wind  
Wind Speed 7 mph (NNE)    
Max Wind Speed 14 mph    
Max Gust Speed 17 mph    
Visibility 7 miles    
Events Fog    
Averages and records for this station are not official NWS values.
T = Trace of Precipitation, MM = Missing Value Source: NWS Daily Summary

Daily Weather History Graph

Daily Weather History Graph

Search for Another Location

Airport:

Trip Planner

Search our weather history database for the weather conditions in past years. The results will help you decide how hot, cold, wet, or windy it might be!

Date:

Astronomy

Aug. 21, 2013 Rise Set
Actual Time 6:29 AM CDT 8:18 PM CDT
Civil Twilight 5:57 AM CDT 8:50 PM CDT
Nautical Twilight 5:18 AM CDT 9:28 PM CDT
Astronomical Twilight 4:36 AM CDT 10:10 PM CDT
Moon 8:20 PM CDT (8/21) 7:15 AM CDT (8/21)
Length of Visible Light 14h 52m
Length of Day
13h 49m
Waxing Gibbous, 99% of the Moon is Illuminated
Aug 21
Waxing Gibbous
Aug 28
Last Quarter
Sep 5
New
Sep 12
First Quarter
Sep 19
Full

Hourly Weather History & Observations

Time (CDT) Temp. Heat Index Dew Point Humidity Pressure Visibility Wind Dir Wind Speed Gust Speed Precip Events Conditions
12:13 AM 73.4 °F - 71.6 °F 94% 29.84 in 5.0 mi South 8.1 mph - N/A   Clear
12:33 AM 73.4 °F - 71.6 °F 94% 29.83 in 5.0 mi South 9.2 mph - N/A   Clear
12:53 AM 75.2 °F - 71.6 °F 89% 29.84 in 5.0 mi SSW 9.2 mph 16.1 mph N/A   Clear
1:13 AM 75.2 °F - 71.6 °F 89% 29.85 in 5.0 mi SSW 8.1 mph - N/A   Clear
1:33 AM 73.4 °F - 71.6 °F 94% 29.85 in 5.0 mi South 8.1 mph - N/A   Clear
1:54 AM 73.4 °F - 71.6 °F 94% 29.84 in 5.0 mi South 11.5 mph - N/A   Clear
2:13 AM 73.4 °F - 71.6 °F 94% 29.84 in 4.0 mi South 9.2 mph - N/A   Clear
2:33 AM 73.4 °F - 71.6 °F 94% 29.84 in 4.0 mi SSW 10.4 mph - N/A   Clear
2:53 AM 73.4 °F - 71.6 °F 94% 29.85 in 4.0 mi WSW 5.8 mph - N/A   Clear
3:13 AM 73.4 °F - 71.6 °F 94% 29.84 in 4.0 mi SSW 5.8 mph - N/A   Clear
3:33 AM 71.6 °F - 71.6 °F 100% 29.84 in 2.5 mi South 6.9 mph - N/A   Clear
3:53 AM 71.6 °F - 71.6 °F 100% 29.83 in 2.0 mi South 6.9 mph - N/A   Clear
4:13 AM 71.6 °F - 71.6 °F 100% 29.83 in 2.0 mi South 6.9 mph - N/A   Clear
4:34 AM 71.6 °F - 71.6 °F 100% 29.83 in 2.0 mi SSW 4.6 mph - N/A   Clear
4:53 AM 71.6 °F - 71.6 °F 100% 29.83 in 2.0 mi SSW 3.5 mph - N/A   Clear
5:13 AM 71.6 °F - 69.8 °F 94% 29.84 in 1.8 mi SSW 4.6 mph - N/A   Clear
5:33 AM 71.6 °F - 71.6 °F 100% 29.84 in 2.0 mi SSW 4.6 mph - N/A   Clear
5:53 AM 71.6 °F - 69.8 °F 94% 29.84 in 2.0 mi SSW 4.6 mph - N/A   Clear
6:13 AM 71.6 °F - 69.8 °F 94% 29.84 in 1.2 mi Calm Calm - N/A   Clear
6:33 AM 69.8 °F - 69.8 °F 100% 29.86 in 1.0 mi SW 4.6 mph - N/A   Clear
6:53 AM 71.6 °F - 69.8 °F 94% 29.85 in 0.8 mi Calm Calm - N/A   Mist
7:13 AM 71.6 °F - 69.8 °F 94% 29.86 in 0.2 mi Calm Calm - N/A Fog Fog
7:33 AM 71.6 °F - 69.8 °F 94% 29.86 in 0.5 mi Calm Calm - N/A Fog Fog
7:53 AM 71.6 °F - 71.6 °F 100% 29.87 in 1.0 mi Calm Calm - N/A   Mostly Cloudy
8:14 AM 71.6 °F - 71.6 °F 100% 29.88 in 1.5 mi Calm Calm - N/A   Clear
8:33 AM 73.4 °F - 73.4 °F 100% 29.89 in 2.0 mi SW 4.6 mph - N/A   Mostly Cloudy
8:53 AM 75.2 °F - 73.4 °F 94% 29.89 in 3.0 mi Calm Calm - N/A   Scattered Clouds
9:14 AM 75.2 °F - 73.4 °F 94% 29.90 in 5.0 mi Calm Calm - N/A   Scattered Clouds
9:33 AM 75.2 °F - 71.6 °F 89% 29.91 in 7.0 mi North 5.8 mph - N/A   Mostly Cloudy
9:53 AM 77.0 °F - 71.6 °F 83% 29.92 in 10.0 mi North 6.9 mph - N/A   Scattered Clouds
10:13 AM 78.8 °F - 71.6 °F 78% 29.93 in 10.0 mi North 8.1 mph - N/A   Scattered Clouds
10:33 AM 80.6 °F 84.6 °F 71.6 °F 74% 29.93 in 10.0 mi North 6.9 mph - N/A   Clear
10:53 AM 80.6 °F 84.6 °F 71.6 °F 74% 29.94 in 10.0 mi NNW 5.8 mph - N/A   Scattered Clouds
11:13 AM 82.4 °F 86.3 °F 69.8 °F 66% 29.94 in 10.0 mi NNE 9.2 mph - N/A   Scattered Clouds
11:33 AM 82.4 °F 86.3 °F 69.8 °F 66% 29.94 in 10.0 mi NNE 8.1 mph - N/A   Clear
11:53 AM 82.4 °F 86.3 °F 69.8 °F 66% 29.95 in 10.0 mi North 8.1 mph - N/A   Clear
12:13 PM 84.2 °F 87.3 °F 68.0 °F 58% 29.95 in 10.0 mi NNW 9.2 mph - N/A   Clear
12:33 PM 84.2 °F 86.6 °F 66.2 °F 55% 29.95 in 10.0 mi North 6.9 mph - N/A   Clear
12:53 PM 86.0 °F 88.2 °F 66.2 °F 51% 29.95 in 10.0 mi North 9.2 mph - N/A   Clear
1:13 PM 87.8 °F 90.4 °F 66.2 °F 49% 29.96 in 10.0 mi NNE 11.5 mph - N/A   Clear
1:33 PM 86.0 °F 86.6 °F 62.6 °F 45% 29.96 in 10.0 mi North 10.4 mph 17.3 mph N/A   Clear
1:53 PM 89.6 °F 90.1 °F 62.6 °F 40% 29.96 in 10.0 mi North 10.4 mph - N/A   Clear
2:13 PM 87.8 °F 87.6 °F 60.8 °F 40% 29.97 in 10.0 mi North 12.7 mph - N/A   Clear
2:33 PM 89.6 °F 88.1 °F 57.2 °F 33% 29.98 in 10.0 mi North 13.8 mph - N/A   Clear
2:53 PM 87.8 °F 87.1 °F 59.0 °F 38% 29.98 in 10.0 mi NNE 12.7 mph - N/A   Clear
3:13 PM 89.6 °F 88.1 °F 57.2 °F 33% 29.98 in 10.0 mi NNE 12.7 mph - N/A   Clear
3:33 PM 89.6 °F 87.7 °F 55.4 °F 31% 29.99 in 10.0 mi NNE 12.7 mph 16.1 mph N/A   Clear
3:53 PM 87.8 °F 86.1 °F 55.4 °F 33% 29.99 in 10.0 mi NE 11.5 mph - N/A   Clear
4:13 PM 87.8 °F 86.1 °F 55.4 °F 33% 29.99 in 10.0 mi NNE 11.5 mph - N/A   Clear
4:33 PM 86.0 °F 84.5 °F 55.4 °F 35% 29.99 in 10.0 mi NNE 11.5 mph - N/A   Clear
4:53 PM 87.8 °F 86.5 °F 57.2 °F 35% 29.99 in 10.0 mi NNE 10.4 mph - N/A   Clear
5:13 PM 86.0 °F 84.9 °F 57.2 °F 37% 29.99 in 10.0 mi NNE 13.8 mph - N/A   Clear
5:33 PM 84.2 °F 83.5 °F 57.2 °F 40% 30.00 in 10.0 mi NNE 11.5 mph - N/A   Clear
5:53 PM 84.2 °F 83.0 °F 55.4 °F 37% 30.00 in 10.0 mi NNE 10.4 mph - N/A   Clear
6:13 PM 80.6 °F 80.5 °F 55.4 °F 42% 30.00 in 10.0 mi NNE 6.9 mph - N/A   Clear
6:33 PM 82.4 °F 82.0 °F 57.2 °F 42% 29.99 in 10.0 mi NNE 8.1 mph - N/A   Clear
6:53 PM 80.6 °F 80.5 °F 55.4 °F 42% 30.00 in 10.0 mi NNE 8.1 mph - N/A   Clear
7:13 PM 80.6 °F 80.8 °F 57.2 °F 45% 30.00 in 10.0 mi NNE 6.9 mph - N/A   Clear
7:33 PM 77.0 °F - 59.0 °F 54% 30.01 in 10.0 mi NNE 3.5 mph - N/A   Clear
7:53 PM 77.0 °F - 60.8 °F 57% 30.01 in 10.0 mi NE 3.5 mph - N/A   Clear
8:13 PM 75.2 °F - 60.8 °F 61% 30.02 in 10.0 mi Calm Calm - N/A   Clear
8:33 PM 73.4 °F - 60.8 °F 65% 30.03 in 10.0 mi Calm Calm - N/A   Clear
8:53 PM 73.4 °F - 60.8 °F 65% 30.03 in 10.0 mi Calm Calm - N/A   Clear
9:13 PM 73.4 °F - 59.0 °F 61% 30.04 in 10.0 mi Calm Calm - N/A   Clear
9:33 PM 73.4 °F - 59.0 °F 61% 30.05 in 10.0 mi North 3.5 mph - N/A   Clear
9:53 PM 71.6 °F - 60.8 °F 69% 30.04 in 10.0 mi NNE 6.9 mph - N/A   Clear
10:13 PM 71.6 °F - 59.0 °F 64% 30.04 in 10.0 mi North 11.5 mph - N/A   Clear
10:33 PM 71.6 °F - 59.0 °F 64% 30.05 in 10.0 mi North 9.2 mph - N/A   Clear
10:53 PM 71.6 °F - 59.0 °F 64% 30.04 in 10.0 mi NNE 12.7 mph - N/A   Clear
11:13 PM 71.6 °F - 57.2 °F 60% 30.05 in 10.0 mi NNE 9.2 mph - N/A   Clear
11:33 PM 68.0 °F - 59.0 °F 73% 30.07 in 10.0 mi NE 5.8 mph - N/A   Clear
11:53 PM 64.4 °F - 57.2 °F 77% 30.06 in 10.0 mi NNE 6.9 mph - N/A   Clear